DW3823 Weather Reports


Display with metric or nautical units.
time (UTC)temp
F
wind
direction
speed
MPH
gust
MPH
rain 1hr
in
rain 24hr
in
rain mn
in
humidity
%
barometer
mb
20260508142537 60 174 1.0 6.0 0.00 0.00 0.00 51 1018.7
20260508142036 60 199 2.0 9.0 0.00 0.00 0.00 49 1018.6
20260508141604 60 170 2.0 9.0 0.00 0.00 0.00 56 1018.6
20260508141034 60 248 2.0 5.0 0.00 0.00 0.00 55 1018.6
20260508140532 59 202 2.0 5.0 0.00 0.00 0.00 54 1018.6
20260508140032 59 184 1.0 3.0 0.00 0.00 0.00 58 1018.6
20260508135529 59 173 0.0 4.0 0.00 0.00 0.00 58 1018.6
20260508135028 58 173 1.0 6.0 0.00 0.00 0.00 61 1018.6
20260508134533 57 274 1.0 4.0 0.00 0.00 0.00 60 1018.7
20260508134024 57 157 0.0 4.0 0.00 0.00 0.00 61 1018.7
20260508133526 56 196 1.0 3.0 0.00 0.00 0.00 58 1018.6
20260508133022 56 208 0.0 3.0 0.00 0.00 0.00 64 1018.8
20260508132521 55 208 0.0 4.0 0.00 0.00 0.00 64 1018.7
20260508132022 54 213 1.0 4.0 0.00 0.00 0.00 64 1018.7
20260508131517 54 219 0.0 4.0 0.00 0.00 0.00 66 1018.7
20260508131016 53 239 1.0 4.0 0.00 0.00 0.00 67 1018.6
20260508130514 53 190 1.0 4.0 0.00 0.00 0.00 67 1018.6
20260508130013 52 174 1.0 4.0 0.00 0.00 0.00 66 1018.6
20260508125511 52 179 0.0 3.0 0.00 0.00 0.00 69 1018.5
20260508125014 51 179 1.0 3.0 0.00 0.00 0.00 72 1018.3
20260508124508 50 176 0.0 3.0 0.00 0.00 0.00 75 1018.3
20260508124007 49 176 1.0 3.0 0.00 0.00 0.00 75 1018.4
20260508123505 49 176 0.0 2.0 0.00 0.00 0.00 80 1018.4
20260508123004 48 176 1.0 3.0 0.00 0.00 0.00 86 1018.3
20260508122503 46 176 0.0 3.0 0.00 0.00 0.00 91 1018.3
20260508122001 45 175 0.0 2.0 0.00 0.00 0.00 94 1018.3
20260508121602 44 175 0.0 2.0 0.00 0.00 0.00 94 1018.2
20260508121058 43 5 0.0 0.0 0.00 0.00 0.00 95 1018.3
20260508120557 42 5 0.0 0.0 0.00 0.00 0.00 95 1018.1
20260508120058 41 5 0.0 0.0 0.00 0.00 0.00 95 1018.1
20260508115557 41 5 0.0 0.0 0.00 0.00 0.00 95 1018.1
20260508115056 40 5 0.0 0.0 0.00 0.00 0.00 95 1018.0
20260508114555 40 5 0.0 0.0 0.00 0.00 0.00 95 1017.9
20260508114054 39 5 0.0 0.0 0.00 0.00 0.00 95 1017.9
20260508113554 39 5 0.0 0.0 0.00 0.00 0.00 95 1017.7
20260508113105 38 5 0.0 0.0 0.00 0.00 0.00 95 1017.7
20260508112552 38 5 0.0 0.0 0.00 0.00 0.00 94 1017.6
20260508112051 38 5 0.0 0.0 0.00 0.00 0.00 94 1017.6
20260508111557 38 5 0.0 0.0 0.00 0.00 0.00 94 1017.5
20260508111054 38 5 0.0 0.0 0.00 0.00 0.00 94 1017.5
20260508110550 38 5 0.0 0.0 0.00 0.00 0.00 94 1017.4
20260508110054 38 5 0.0 0.0 0.00 0.00 0.00 94 1017.4
20260508105548 38 5 0.0 0.0 0.00 0.00 0.00 94 1017.3
20260508105047 38 5 0.0 0.0 0.00 0.00 0.00 94 1017.3
20260508104546 38 5 0.0 0.0 0.00 0.00 0.00 94 1017.3
20260508104045 39 5 0.0 0.0 0.00 0.00 0.00 94 1017.3
20260508103546 39 5 0.0 0.0 0.00 0.00 0.00 94 1017.3
20260508103045 39 5 0.0 0.0 0.00 0.00 0.00 95 1017.2
20260508102544 39 5 0.0 0.0 0.00 0.00 0.00 94 1017.1
20260508102044 39 5 0.0 0.0 0.00 0.00 0.00 94 1017.1
20260508101543 39 5 0.0 1.0 0.00 0.00 0.00 94 1017.0
20260508101043 39 5 0.0 1.0 0.00 0.00 0.00 94 1016.9
20260508100542 39 5 0.0 1.0 0.00 0.00 0.00 94 1016.9
20260508100042 39 5 0.0 0.0 0.00 0.00 0.00 94 1016.9
20260508095542 38 5 0.0 0.0 0.00 0.00 0.00 94 1016.9
20260508095042 38 5 0.0 0.0 0.00 0.00 0.00 94 1016.7
20260508094541 38 5 0.0 0.0 0.00 0.00 0.00 94 1016.7
20260508094040 39 5 0.0 0.0 0.00 0.00 0.00 94 1016.8
20260508093540 39 5 0.0 0.0 0.00 0.00 0.00 94 1016.6
20260508093046 39 5 0.0 0.0 0.00 0.00 0.00 94 1016.7
20260508092538 39 5 0.0 0.0 0.00 0.00 0.00 94 1016.6
20260508092038 39 5 0.0 0.0 0.00 0.00 0.00 94 1016.5
20260508091548 39 5 0.0 0.0 0.00 0.00 0.00 94 1016.5
20260508091040 39 5 0.0 0.0 0.00 0.00 0.00 94 1016.6
20260508090536 39 5 0.0 0.0 0.00 0.00 0.00 94 1016.6
20260508090040 39 5 0.0 0.0 0.00 0.00 0.00 94 1016.6
20260508085537 39 5 0.0 0.0 0.00 0.00 0.00 93 1016.5
20260508085035 40 5 0.0 0.0 0.00 0.00 0.00 93 1016.4
20260508084534 39 5 0.0 0.0 0.00 0.00 0.00 93 1016.4
20260508084034 40 5 0.0 0.0 0.00 0.00 0.00 93 1016.4
20260508083532 40 5 0.0 0.0 0.00 0.00 0.00 93 1016.6
20260508083032 40 5 0.0 0.0 0.00 0.00 0.00 93 1016.6
20260508082531 40 5 0.0 0.0 0.00 0.00 0.00 93 1016.5
20260508082031 40 5 0.0 0.0 0.00 0.00 0.00 93 1016.6
20260508081532 40 5 0.0 0.0 0.00 0.00 0.00 93 1016.6
20260508081031 41 5 0.0 0.0 0.00 0.00 0.00 93 1016.6
20260508080533 40 5 0.0 0.0 0.00 0.00 0.00 93 1016.6
20260508080037 41 5 0.0 0.0 0.00 0.00 0.00 93 1016.7
20260508075529 41 5 0.0 0.0 0.00 0.01 0.00 93 1016.6
20260508075029 41 5 0.0 0.0 0.00 0.01 0.00 93 1016.6
20260508074531 41 5 0.0 0.0 0.00 0.01 0.00 93 1016.4
20260508074027 41 5 0.0 0.0 0.00 0.01 0.00 93 1016.4
20260508073529 41 5 0.0 0.0 0.00 0.01 0.00 93 1016.5
20260508073026 41 5 0.0 0.0 0.00 0.01 0.00 92 1016.5
20260508072526 41 5 0.0 0.0 0.00 0.01 0.00 92 1016.5
20260508072025 41 5 0.0 0.0 0.00 0.01 0.00 92 1016.4
20260508071530 41 5 0.0 0.0 0.00 0.01 0.00 92 1016.5
20260508071024 41 5 0.0 0.0 0.00 0.01 0.00 92 1016.5
20260508070524 42 5 0.0 0.0 0.00 0.01 0.00 92 1016.5
20260508070023 42 5 0.0 0.0 0.00 0.01 0.00 92 1016.6
20260508065523 42 5 0.0 0.0 0.00 0.01 0.00 92 1016.6
20260508065022 42 5 0.0 0.0 0.00 0.01 0.00 92 1016.6
20260508064522 42 5 0.0 0.0 0.00 0.01 0.00 92 1016.7
20260508064021 42 5 0.0 0.0 0.00 0.01 0.00 92 1016.7
20260508063521 42 5 0.0 0.0 0.00 0.01 0.00 91 1016.6
20260508063020 42 5 0.0 0.0 0.00 0.01 0.00 91 1016.6
20260508062520 42 5 0.0 0.0 0.00 0.01 0.00 91 1016.7
20260508062019 42 5 0.0 0.0 0.00 0.01 0.00 91 1016.7
20260508061521 42 5 0.0 0.0 0.00 0.01 0.00 91 1016.9
20260508061020 42 5 0.0 0.0 0.00 0.01 0.00 91 1016.9
20260508060518 43 5 0.0 0.0 0.00 0.01 0.00 91 1016.9
20260508060018 43 5 0.0 0.0 0.00 0.01 0.00 90 1017.0
20260508055516 43 5 0.0 0.0 0.00 0.02 0.00 90 1017.0
20260508055017 43 5 0.0 0.0 0.00 0.02 0.00 90 1016.9
20260508054516 43 5 0.0 0.0 0.00 0.02 0.00 91 1016.9
20260508054016 43 5 0.0 0.0 0.00 0.02 0.00 91 1017.0
20260508053515 43 5 0.0 0.0 0.00 0.02 0.00 91 1016.9
20260508053015 43 5 0.0 0.0 0.00 0.02 0.00 91 1016.9
20260508052515 43 5 0.0 0.0 0.00 0.02 0.00 91 1016.8
20260508052015 43 5 0.0 0.0 0.00 0.02 0.00 91 1016.7
20260508051515 43 5 0.0 0.0 0.00 0.02 0.00 91 1016.8
20260508051013 43 5 0.0 0.0 0.00 0.02 0.00 91 1016.8
20260508050513 43 5 0.0 0.0 0.00 0.02 0.00 91 1016.8
20260508050012 43 5 0.0 0.0 0.00 0.02 0.00 91 1016.7
20260508045516 43 5 0.0 0.0 0.00 0.02 0.02 91 1016.8
20260508045010 43 5 0.0 0.0 0.00 0.02 0.02 91 1016.7
20260508044009 43 5 0.0 0.0 0.00 0.02 0.02 91 1016.9
20260508043514 43 5 0.0 0.0 0.00 0.02 0.02 91 1017.0
20260508043009 44 5 0.0 0.0 0.00 0.02 0.02 90 1017.1
20260508042511 44 5 0.0 0.0 0.00 0.02 0.02 90 1017.1
20260508042010 44 5 0.0 0.0 0.00 0.02 0.02 90 1017.1
20260508041507 44 5 0.0 0.0 0.00 0.02 0.02 90 1017.1
20260508041007 44 5 0.0 0.0 0.00 0.02 0.02 90 1017.0
20260508040509 44 5 0.0 0.0 0.00 0.02 0.02 90 1016.9
20260508040009 44 5 0.0 0.0 0.00 0.02 0.02 90 1016.7
20260508035505 44 5 0.0 0.0 0.00 0.02 0.02 90 1016.8
20260508035004 44 5 0.0 0.0 0.00 0.02 0.02 89 1016.7
20260508034506 45 5 0.0 0.0 0.00 0.02 0.02 89 1016.7
20260508034004 45 5 0.0 0.0 0.00 0.02 0.02 89 1016.7
20260508033505 45 5 0.0 0.0 0.00 0.02 0.02 89 1016.6
20260508033001 45 5 0.0 0.0 0.00 0.02 0.02 89 1016.6
20260508032501 45 5 0.0 0.0 0.00 0.02 0.02 89 1016.6
20260508032103 45 5 0.0 0.0 0.00 0.02 0.02 88 1016.6
20260508031600 46 5 0.0 0.0 0.00 0.02 0.02 88 1016.7
20260508031100 46 5 0.0 0.0 0.00 0.02 0.02 87 1016.8
20260508030559 46 5 0.0 0.0 0.00 0.02 0.02 87 1016.7
20260508030058 46 5 0.0 0.0 0.00 0.02 0.02 86 1016.8
20260508025557 46 5 0.0 0.0 0.00 0.04 0.02 86 1016.6
20260508025057 46 5 0.0 0.0 0.00 0.04 0.02 86 1016.6
20260508024559 46 5 0.0 0.0 0.00 0.04 0.02 86 1016.6
20260508024055 47 5 0.0 0.0 0.00 0.04 0.02 86 1016.4
20260508023554 47 5 0.0 0.0 0.00 0.04 0.02 85 1016.6
20260508023056 47 5 0.0 0.0 0.00 0.04 0.02 85 1016.5
20260508022554 47 5 0.0 0.0 0.00 0.04 0.02 84 1016.6
20260508022053 47 5 0.0 0.0 0.00 0.04 0.02 84 1016.5
20260508021553 47 5 0.0 0.0 0.00 0.04 0.02 83 1016.5
20260508021051 48 5 0.0 0.0 0.00 0.04 0.02 83 1016.4
20260508020554 48 5 0.0 0.0 0.00 0.04 0.02 82 1016.5
20260508020053 48 5 0.0 0.0 0.00 0.04 0.02 82 1016.4
20260508015550 48 5 0.0 0.0 0.00 0.04 0.02 82 1016.3
20260508015053 48 5 0.0 0.0 0.00 0.04 0.02 82 1016.2
20260508014547 49 5 0.0 0.0 0.00 0.04 0.02 82 1016.0
20260508014046 49 5 0.0 0.0 0.00 0.04 0.02 81 1015.9
20260508013548 49 5 0.0 0.0 0.00 0.04 0.02 82 1015.7
20260508013045 49 5 0.0 0.0 0.00 0.04 0.02 81 1015.4
20260508012543 50 5 0.0 0.0 0.00 0.04 0.02 80 1015.4
20260508012043 50 5 0.0 0.0 0.00 0.04 0.02 79 1015.6
20260508011543 50 5 0.0 0.0 0.00 0.04 0.02 77 1015.4
20260508011043 51 5 0.0 0.0 0.00 0.04 0.02 75 1015.5
20260508010543 51 5 0.0 0.0 0.00 0.04 0.02 74 1015.4
20260508010043 51 5 0.0 1.0 0.00 0.04 0.02 72 1015.3
20260508005542 52 5 0.0 1.0 0.00 0.04 0.02 71 1015.3
20260508005043 53 38 0.0 1.0 0.00 0.04 0.02 70 1015.1
20260508004545 53 5 0.0 1.0 0.00 0.04 0.02 68 1015.2
20260508004043 54 5 0.0 1.0 0.00 0.04 0.02 66 1015.1
20260508003542 54 5 0.0 1.0 0.00 0.04 0.02 65 1014.9
20260508003042 54 5 0.0 0.0 0.00 0.04 0.02 66 1014.9
20260508002542 55 5 0.0 0.0 0.00 0.04 0.02 66 1014.8
20260508002041 56 5 0.0 1.0 0.00 0.04 0.02 63 1014.8
20260508001541 56 5 0.0 1.0 0.00 0.04 0.02 62 1014.7
20260508001041 57 5 0.0 1.0 0.00 0.04 0.02 62 1014.7
20260508000542 57 5 0.0 2.0 0.00 0.04 0.02 60 1014.8
20260508000040 58 5 0.0 3.0 0.00 0.04 0.02 56 1014.7
20260507235541 59 338 0.0 4.0 0.00 0.07 0.02 54 1014.7
20260507235041 59 66 0.0 6.0 0.00 0.07 0.02 54 1014.7
20260507234540 59 296 1.0 7.0 0.00 0.07 0.02 56 1014.5
20260507234039 59 88 0.0 4.0 0.00 0.07 0.02 55 1014.4
20260507233542 60 77 1.0 4.0 0.00 0.07 0.02 55 1014.4
20260507233040 60 58 1.0 4.0 0.00 0.07 0.02 52 1014.5
20260507232539 61 72 1.0 3.0 0.00 0.07 0.02 56 1014.3
20260507232038 61 51 0.0 4.0 0.00 0.07 0.02 53 1014.2
20260507231545 61 65 0.0 4.0 0.00 0.07 0.02 50 1014.3
20260507231038 62 55 0.0 3.0 0.00 0.07 0.02 51 1014.3
20260507230539 62 71 1.0 9.0 0.00 0.07 0.02 50 1014.4
20260507230038 62 94 2.0 9.0 0.00 0.07 0.02 51 1014.3
20260507225538 62 71 0.0 5.0 0.00 0.07 0.02 50 1014.6
20260507225041 63 90 1.0 6.0 0.00 0.07 0.02 49 1014.6
20260507224538 63 286 2.0 6.0 0.00 0.07 0.02 49 1014.7
20260507224040 63 351 0.0 6.0 0.00 0.07 0.02 51 1014.7
20260507223540 63 57 1.0 5.0 0.00 0.07 0.02 50 1014.6
20260507223037 64 257 2.0 7.0 0.00 0.07 0.02 51 1014.6
20260507222537 64 261 2.0 7.0 0.00 0.07 0.02 50 1014.6
20260507222037 64 41 2.0 4.0 0.00 0.07 0.02 49 1014.7
20260507221536 64 262 1.0 4.0 0.00 0.07 0.02 49 1014.6
20260507221035 64 295 0.0 5.0 0.00 0.07 0.02 49 1014.6
20260507220535 64 289 2.0 5.0 0.00 0.07 0.02 49 1014.6
20260507220036 64 67 1.0 8.0 0.00 0.07 0.02 51 1014.5
20260507215536 64 289 3.0 8.0 0.00 0.07 0.02 49 1014.7
20260507215036 64 277 1.0 5.0 0.00 0.07 0.02 49 1014.6
20260507214543 64 355 1.0 5.0 0.00 0.07 0.02 49 1014.5
20260507214033 64 63 2.0 9.0 0.00 0.07 0.02 53 1014.7
20260507213531 64 20 3.0 9.0 0.00 0.07 0.02 50 1014.7
20260507213032 63 305 1.0 5.0 0.00 0.07 0.02 50 1014.7
20260507212531 63 221 1.0 5.0 0.00 0.07 0.02 55 1014.6
20260507212030 64 144 1.0 5.0 0.00 0.07 0.02 49 1014.4
20260507211531 64 249 2.0 6.0 0.00 0.07 0.02 49 1014.3
20260507211030 64 53 2.0 6.0 0.00 0.07 0.02 51 1014.3
20260507210532 64 61 3.0 7.0 0.00 0.07 0.02 52 1014.2
20260507210046 64 281 3.0 7.0 0.00 0.07 0.02 50 1014.4
20260507205530 64 248 2.0 11.0 0.00 0.07 0.02 52 1014.4
20260507205029 64 267 2.0 11.0 0.00 0.07 0.02 49 1014.3
20260507204529 65 18 3.0 9.0 0.00 0.07 0.02 51 1014.4
20260507204032 64 265 1.0 5.0 0.00 0.07 0.02 53 1014.3
20260507203528 65 25 2.0 7.0 0.00 0.07 0.02 49 1014.3
20260507203028 64 262 1.0 8.0 0.00 0.07 0.02 59 1014.3
20260507202527 64 267 4.0 9.0 0.00 0.07 0.02 53 1014.3
20260507202027 65 56 4.0 9.0 0.00 0.07 0.02 52 1014.4
20260507201527 65 110 2.0 7.0 0.00 0.07 0.02 54 1014.4
20260507201027 64 243 3.0 7.0 0.00 0.07 0.02 51 1014.4
20260507200527 64 227 1.0 6.0 0.00 0.07 0.02 51 1014.4
20260507200028 65 84 2.0 8.0 0.00 0.07 0.02 51 1014.5
20260507195526 65 63 1.0 8.0 0.00 0.09 0.02 53 1014.4
20260507195026 65 69 2.0 9.0 0.00 0.09 0.02 54 1014.5
20260507194535 65 58 3.0 9.0 0.00 0.09 0.02 51 1014.6
20260507194024 64 163 3.0 9.0 0.00 0.09 0.02 51 1014.6
20260507193524 64 42 2.0 9.0 0.00 0.09 0.02 55 1014.6
20260507193030 64 351 2.0 9.0 0.00 0.09 0.02 56 1014.7
20260507192524 65 9 3.0 8.0 0.00 0.09 0.02 55 1014.7
20260507192026 64 298 1.0 8.0 0.00 0.09 0.02 52 1014.6
20260507191522 64 130 3.0 8.0 0.00 0.09 0.02 54 1014.6
20260507191021 64 47 4.0 10.0 0.00 0.09 0.02 54 1014.7
20260507190521 63 309 2.0 10.0 0.00 0.09 0.02 54 1014.8
20260507190020 63 322 3.0 8.0 0.00 0.09 0.02 57 1014.8
20260507185519 62 332 1.0 4.0 0.00 0.09 0.02 59 1014.7
20260507185022 63 360 0.0 3.0 0.00 0.09 0.02 61 1014.8
20260507184519 62 84 1.0 6.0 0.00 0.09 0.02 59 1014.8
20260507184019 62 142 1.0 11.0 0.00 0.09 0.02 54 1014.7
20260507183518 63 300 2.0 11.0 0.00 0.09 0.02 57 1014.7
20260507183022 63 319 2.0 8.0 0.00 0.09 0.02 61 1014.9
20260507182517 62 69 2.0 6.0 0.00 0.09 0.02 57 1015.0
20260507182016 62 110 2.0 9.0 0.00 0.09 0.02 58 1014.9
20260507181515 62 92 3.0 9.0 0.00 0.09 0.02 60 1015.0
20260507181015 62 32 1.0 4.0 0.00 0.09 0.02 59 1015.1
20260507180514 61 14 1.0 6.0 0.00 0.09 0.02 59 1015.3
20260507180016 61 321 2.0 6.0 0.00 0.09 0.02 58 1015.4
20260507175514 62 290 1.0 9.0 0.00 0.09 0.02 59 1015.3
20260507175014 60 90 3.0 9.0 0.00 0.09 0.02 62 1015.3
20260507174513 60 70 2.0 9.0 0.00 0.09 0.02 62 1015.4
20260507174013 62 55 4.0 9.0 0.00 0.09 0.02 60 1015.2
20260507173514 60 91 2.0 9.0 0.00 0.09 0.02 64 1015.4
20260507173011 60 350 2.0 5.0 0.00 0.09 0.02 60 1015.3
20260507172512 61 279 1.0 6.0 0.00 0.09 0.02 60 1015.4
20260507172011 59 335 2.0 6.0 0.00 0.09 0.02 61 1015.2
20260507171511 61 71 2.0 6.0 0.00 0.09 0.02 60 1015.4
20260507171011 60 56 2.0 6.0 0.00 0.09 0.02 60 1015.3
20260507170510 60 143 1.0 9.0 0.00 0.09 0.02 68 1015.1
20260507170012 60 84 2.0 9.0 0.00 0.09 0.02 60 1015.4
20260507165509 61 284 3.0 8.0 0.00 0.09 0.02 59 1015.5
20260507165009 60 61 2.0 8.0 0.00 0.09 0.02 68 1015.5
20260507164509 60 265 1.0 10.0 0.00 0.09 0.02 63 1015.6
20260507164008 62 89 2.0 10.0 0.00 0.09 0.02 59 1015.6
20260507163506 61 342 4.0 9.0 0.00 0.09 0.02 60 1015.7
20260507163005 61 108 1.0 12.0 0.00 0.09 0.02 60 1015.5
20260507162504 61 302 5.0 12.0 0.00 0.09 0.02 61 1015.5
20260507162004 60 57 2.0 10.0 0.00 0.09 0.02 63 1015.5
20260507161503 60 67 3.0 10.0 0.00 0.09 0.02 61 1015.6
20260507161002 60 112 3.0 9.0 0.00 0.09 0.02 61 1015.6
20260507160502 60 273 4.0 9.0 0.00 0.09 0.02 61 1015.7
20260507160101 60 61 3.0 9.0 0.00 0.09 0.02 64 1015.7
20260507155600 60 346 3.0 9.0 0.00 0.09 0.02 62 1015.8
20260507155101 60 331 2.0 8.0 0.00 0.09 0.02 64 1015.6
20260507154605 59 143 2.0 8.0 0.00 0.09 0.02 64 1015.7
20260507154055 59 94 2.0 8.0 0.00 0.09 0.02 64 1015.7
20260507153553 59 93 3.0 11.0 0.00 0.09 0.02 62 1015.6
20260507153052 59 243 3.0 13.0 0.00 0.09 0.02 66 1015.5
20260507152554 59 336 5.0 13.0 0.00 0.09 0.02 65 1015.5
20260507152050 59 54 3.0 10.0 0.00 0.09 0.02 65 1015.6
20260507151549 59 93 2.0 9.0 0.00 0.09 0.02 65 1015.5
20260507151047 59 17 1.0 5.0 0.00 0.09 0.02 73 1015.3
20260507150546 58 105 1.0 6.0 0.00 0.09 0.02 67 1015.4
20260507150046 58 80 2.0 7.0 0.00 0.09 0.02 69 1015.3
20260507145544 58 76 2.0 8.0 0.00 0.11 0.02 70 1015.3
20260507145043 57 9 3.0 8.0 0.00 0.11 0.02 70 1015.4
20260507144540 57 76 1.0 8.0 0.00 0.11 0.02 70 1015.3
20260507144040 57 96 3.0 9.0 0.00 0.11 0.02 70 1015.2
20260507143539 57 66 3.0 9.0 0.00 0.11 0.02 72 1015.1
20260507143039 57 42 2.0 8.0 0.00 0.11 0.02 72 1015.2